Regional Weather Roundup
Issued by NWS

Home | Current Version | Previous Version | Text Only | Print | Product List | Glossary On
Versions: 1 2 3 4 5 6 7 8 9 10 11 12 13 14 15 16 17 18 19 20 21 22 23 24 25 26 27 28 29 30 31 32 33 34 35 36 37 38 39 40 41 42 43 44 45 46 47 48 49 50
000
ASUS42 KFFC 160610
RWRGA
WEATHER ROUNDUP FOR GEORGIA
NATIONAL WEATHER SERVICE PEACHTREE CITY GA
200 AM EDT TUE JUL 16 2019

NOTE: "FAIR" INDICATES FEW OR NO CLOUDS BELOW 12,000 FEET WITH NO
SIGNIFICANT WEATHER AND/OR OBSTRUCTIONS TO VISIBILITY.

* = USE WITH CAUTION. THE STATIONS MARKED WITH AN ASTERISK MAY NOT
REPORT WEATHER SUCH AS PRECIPITATION, FOG, OR THUNDER AND ARE NOT
QUALITY CONTROLLED BY NWS.

THE REMARK "TC" DENOTES TEMPERATURE READING IN DEGREES CELSIUS.

GAZ001>058-160700-
NORTH GEORGIA

CITY           SKY/WX    TMP DP  RH WIND       PRES   REMARKS
ATLANTA        MOCLDY    79  70  74 SW3       30.13F
6HR MIN TEMP:  79; 6HR MAX TEMP:  89;

ATHENS         FAIR      77  71  82 CALM      30.12F
6HR MIN TEMP:  76; 6HR MAX TEMP:  89;

CHAMBLEE       FAIR      74  70  87 CALM      30.13F
6HR MIN TEMP:  74; 6HR MAX TEMP:  86;

PEACHTREE CITY FAIR      75  72  90 CALM      30.13F
6HR MIN TEMP:  75; 6HR MAX TEMP:  86;

ROME           FAIR      75  72  90 CALM      30.11S
6HR MIN TEMP:  74; 6HR MAX TEMP:  87;

WEST ATLANTA   FAIR      75  70  84 CALM      30.12F
6HR MIN TEMP:  75; 6HR MAX TEMP:  89;

GAINESVILLE    FAIR      76  73  91 CALM      30.17S
6HR MIN TEMP:  76; 6HR MAX TEMP:  87;

CARTERSVILLE   FAIR      72  70  93 CALM      30.13S
6HR MIN TEMP:  72; 6HR MAX TEMP:  84;



CITY           SKY/WX    TMP DP  RH WIND       PRES   REMARKS
DALTON*        FAIR      73  72  94 CALM      30.13S
LAWRENCEVILLE* FAIR      74  73  97 CALM      30.14F
MARIETTA       FAIR      76  70  82 CALM      30.13F
KENNESAW*      FAIR      75  72  90 CALM      30.14F
CANTON*        FAIR      72  72 100 CALM      30.16F
BLAIRSVILLE*   FAIR      67  67  99 CALM      30.21R
$$

GAZ059>098-102>109-160700-
CENTRAL GEORGIA

CITY           SKY/WX    TMP DP  RH WIND       PRES   REMARKS
AUGUSTA-BUSH   FAIR      75  72  90 CALM      30.08F
6HR MIN TEMP:  75; 6HR MAX TEMP:  88;

AUGUSTA-DANIEL FAIR      82  72  71 CALM      30.10F
6HR MIN TEMP:  82; 6HR MAX TEMP:  94;

COLUMBUS       FAIR      77  73  87 CALM      30.11S
6HR MIN TEMP:  77; 6HR MAX TEMP:  86;

MACON          FAIR      75  71  87 W5        30.11S
6HR MIN TEMP:  75; 6HR MAX TEMP:  90;

ROBINS AFB     FAIR      77  72  84 CALM      30.10S


CITY           SKY/WX    TMP DP  RH WIND       PRES   REMARKS
LAGRANGE*      FAIR      72  71  97 CALM      30.13S
SYLVANIA*        N/A     78  75  91 CALM      30.10F
MILLEDGEVILLE* FAIR      77  70  78 CALM      30.11S
$$

GAZ099>101-110>166-160700-
SOUTH GEORGIA

CITY           SKY/WX    TMP DP  RH WIND       PRES   REMARKS
SAVANNAH       FAIR      80  76  87 CALM      30.08F
6HR MIN TEMP:  80; 6HR MAX TEMP:  92;

VALDOSTA       FAIR      74  71  91 CALM      30.10F
6HR MIN TEMP:  74; 6HR MAX TEMP:  84;

ALMA           FAIR      76  73  91 CALM      30.10S
6HR MIN TEMP:  75; 6HR MAX TEMP:  91;

ST SIMONS      FAIR      83  73  72 SW8       30.08F
6HR MIN TEMP:  83; 6HR MAX TEMP:  88;

FT STEWART     FAIR      78  73  86 CALM      30.06F
ALBANY         FAIR      78  72  81 CALM      30.13F
HUNTER AFB     PTCLDY    80  76  87 CALM      30.05F
MOODY AFB      FAIR      77  75  93 CALM      30.09F
BRUNSWICK      FAIR      79  74  84 SW6       30.08S


CITY           SKY/WX    TMP DP  RH WIND       PRES   REMARKS
BAINBRIDGE*      N/A     77  72  83 MISG      30.11F
MOULTRIE*      FAIR      77  73  88 CALM      30.12F
VIDALIA*       FAIR      79  66  65 CALM      30.10F
WAYCROSS*      FAIR      78  73  84 CALM      30.10S
DOUGLAS*       FAIR      77  72  83 CALM      30.12S
$$




USA.gov is the U.S. government's official web portal to all federal, state and local government web resources and services.